Vertical_Velocity
-1 -0 0 -1 4 -0 0 2 0 1 1 -0 -0 0 0 1 -1 0 0 3 3 2 -1 2 3 1 1 -0 -1 -1 -2 0 1 1 -2 -0 1 0 2 1 0 1 -0 0 -1 -1 -2 2 1
-4 -2 -1 1 2 1 2 1 1 -2 -2 -1 -2 -1 1 -0 -3 1 -1 3 1 2 0 1 1 -0 -0 -1 -1 -2 1 2 1 -1 -1 1 1 1 0 1 1 1 0 -1 -0 -1 -2 -2 1
-1 2 2 -3 4 -1 -1 -1 -1 1 1 -0 1 -1 2 -2 -1 0 0 0 1 -0 0 3 -1 0 0 -1 -1 1 3 -0 -1 -1 0 0 -0 -1 1 -0 1 0 0 0 -0 0 -3 -3 1
-3 4 1 -1 2 1 0 -2 -2 -2 -1 0 0 -3 -0 3 -2 0 1 -0 1 1 2 1 1 -1 -0 -0 0 2 -0 -1 -2 -0 -1 -1 -0 1 -0 -0 -0 0 1 0 1 1 -1 -2 -1
-0 4 1 -3 1 1 0 -1 -0 -6 -1 -4 3 -5 -1 4 1 -2 -1 -0 1 1 2 0 0 -0 1 0 1 -1 -3 -1 -2 1 -0 -1 -1 -1 -1 -0 -1 -2 -2 -2 -2 -0 -0 -1 0
0 2 -1 -2 2 2 1 0 -0 -2 -2 1 2 -4 -0 4 1 -1 0 -1 2 1 -1 1 0 0 -0 -1 -1 -2 -1 -1 -0 -1 -1 -0 -0 -1 -0 0 -2 1 0 -1 -0 2 0 -0 -0
1 2 -1 0 1 2 1 -1 -1 -0 -3 -0 3 -2 -4 2 3 0 -1 -0 0 1 1 -1 -0 -1 -1 -1 -0 -2 -1 -1 -1 -2 1 0 -2 -2 -0 0 -1 -2 -0 -0 -1 0 1 0 1
1 3 1 3 -1 2 -2 0 -0 1 -0 -2 -5 0 -3 -5 4 3 1 1 -1 0 -0 -0 -0 -1 -2 -1 -1 -2 -0 0 -1 -0 -1 -1 -0 -0 1 -1 -0 -1 0 -0 -1 -0 0 0 -1
0 -2 -1 -0 -2 1 -1 1 1 -0 -0 -0 -1 -2 1 -2 0 1 1 -1 -1 0 -1 1 -1 -0 -1 -1 -2 -1 0 -0 -2 -0 0 -2 2 -1 -1 -0 -0 -1 -0 0 -0 -0 -1 -2 -0
1 0 -2 -1 1 2 -7 -0 1 -1 -1 -1 -1 -1 -3 1 -0 -2 2 -1 -1 -1 -2 1 -0 -1 -2 -1 -1 -0 0 0 -0 -0 -2 -1 -1 -0 0 -1 1 -1 -1 -0 2 -0 -2 -1 -2
2 -1 0 -0 1 1 -3 -5 1 -2 -5 -1 1 2 -2 -2 1 1 -0 -1 -1 -1 -1 -0 -1 -1 -1 -1 -1 -0 -1 -1 -0 -1 -0 0 -0 -0 -1 -0 0 0 0 -0 -2 -2 -0 -0 -1
-0 -1 -1 5 -2 -1 3 -2 -3 -1 -1 2 2 1 2 -1 -1 0 -2 -1 -3 -1 -0 -1 -0 -1 -0 -1 -1 -1 -0 -1 -1 -1 -0 -1 -2 -1 1 0 -1 -1 -1 0 -0 1 1 -2 0
-1 -0 -5 2 3 2 0 4 -3 -3 1 -2 3 2 1 -0 1 1 1 2 0 0 -2 -1 -0 -1 -0 -1 -1 -1 -1 -1 -1 -1 -1 -0 -1 0 0 -0 0 -1 -0 0 0 0 5 1 -2
-2 -1 -2 -0 -6 6 -0 -1 -4 -4 -1 -0 1 1 2 1 2 -1 -1 1 -1 2 -0 -1 -0 -0 -1 -1 -2 -0 -1 -2 -1 -1 0 -1 -0 -0 -1 -1 1 1 0 -2 -1 -1 -0 -2 0
-4 -1 0 -6 -1 2 2 3 3 -4 -2 1 1 2 -1 0 -0 -3 -1 -1 -0 -4 0 -0 -0 -1 -1 -2 -2 -0 -1 -1 -1 -1 1 1 2 -0 -2 -0 1 0 1 -0 -0 -1 0 -2 -1
-4 -0 2 -1 -1 4 0 -2 2 -2 -1 -1 1 1 1 -1 -1 0 0 -1 -1 0 -1 -0 0 -0 -1 -2 -1 -1 -0 0 -2 -1 2 -0 0 1 -1 0 1 0 -0 -0 0 0 1 1 -0
-6 3 2 -0 0 -1 2 2 0 1 -4 -1 2 0 3 -1 -2 -0 1 -1 -2 -2 0 -0 -1 -1 -1 -1 -2 -2 -2 -1 1 -1 1 -0 1 0 1 1 1 -1 -0 -1 -1 -1 0 0 -2
4 5 0 3 -1 -3 3 1 -3 -1 0 -2 1 1 4 0 -1 -2 -0 -2 -2 -1 -0 0 -0 -1 -1 -1 -2 -0 -0 -0 -2 1 -1 -1 -0 1 -1 2 1 -0 -0 -1 -0 -1 -0 0 -0
1 2 0 -0 -7 -2 -1 1 -2 -4 -2 -2 -2 1 2 2 -2 -0 1 -3 -4 -3 2 3 0 -2 0 -1 -2 -2 -2 -1 -1 -0 -2 -1 -0 -0 1 1 -0 -0 -1 -1 -1 0 -2 -2 -1
1 0 1 1 -6 -3 -2 5 -5 -3 1 0 -1 -0 1 1 -4 -2 3 1 2 -2 -2 1 3 2 2 1 -1 -1 -2 -3 -2 -1 -1 -0 0 1 1 -0 0 -1 -1 0 -1 1 -1 -0 1
0 0 1 3 -0 -9 -2 -1 -3 5 -6 -2 -4 -1 2 0 -1 -0 -1 -2 -4 0 3 0 -1 -1 -1 1 1 -1 -2 -2 -2 0 0 0 2 1 0 -2 0 -1 0 0 -1 0 0 -0 1
-4 6 7 -3 -1 -0 -7 -8 -5 -1 2 -3 -2 -6 1 1 -1 -2 1 -1 -0 -2 -3 -1 -0 -1 -2 0 0 -0 -0 -1 -1 1 0 -0 0 1 -0 -0 -1 -1 1 -0 0 -0 -2 -1 -1
9 1 4 2 -4 -4 -4 -13 5 -1 -0 -3 -1 -3 -0 3 -2 0 -2 1 -0 -0 1 0 -0 1 1 3 1 -1 -1 0 -1 -2 1 -1 -0 1 -2 -1 -1 -0 0 0 -1 0 -1 -4 1
4 2 0 -2 -2 -29 9 -6 6 -9 11 4 -4 -4 -1 -1 -0 -0 -1 -1 0 -1 -2 -0 -2 -2 1 1 1 1 0 1 -0 -0 1 1 0 1 -2 1 -1 0 0 0 -0 0 -1 -3 -3
-7 -5 -4 -10 -24 1 6 -21 18 1 2 5 2 1 2 4 0 3 -3 2 1 1 -2 -2 -0 -1 -1 1 2 1 -0 2 0 0 0 1 0 -0 -2 -0 0 0 -1 -1 -1 1 -1 -1 -1
12 6 5 -3 -8 8 10 -32 8 8 5 2 3 2 1 -3 0 -4 -1 -3 -2 -1 2 -2 -1 -1 0 -1 0 2 1 2 -1 0 1 -0 -0 -0 -1 -0 1 -1 -1 -1 0 -1 -0 -0 -1
9 -22 29 -0 -2 -6 -6 3 1 4 1 2 0 0 -5 -4 -2 -1 -1 0 1 -2 4 0 0 -1 0 -0 -1 0 2 1 -0 -2 0 1 1 -0 -1 -1 1 -0 0 0 1 -1 -1 -1 -2
-5 6 -1 -6 -11 -12 -3 -5 -1 0 -0 -3 -1 -5 1 2 -4 -3 1 -3 -1 1 2 1 -1 -2 -2 -0 1 -1 1 1 1 -1 1 1 0 1 1 1 2 0 1 2 0 0 -0 -0 -1
-4 -7 -8 2 -17 -7 2 -4 9 4 7 0 1 -1 1 -1 -2 1 0 1 -1 4 -1 2 -1 1 -1 -1 1 -0 0 2 2 1 0 0 -1 1 1 2 2 0 1 1 0 1 -1 -0 1
-6 -1 3 -4 -5 1 -6 -4 -3 2 6 -1 9 -3 -3 -2 6 -4 -3 5 1 -2 -0 1 1 -1 -0 -1 0 0 -1 1 1 2 1 0 -1 1 -1 1 0 -1 2 -0 -2 -0 2 1 -0
Height
5877 5877 5876 5876 5879 5877 5877 5878 5878 5878 5880 5877 5878 5880 5880 5880 5881 5884 5883 5885 5887 5888 5889 5890 5891 5892 5893 5893 5894 5894 5896 5896 5898 5899 5898 5898 5897 5898 5899 5899 5899 5900 5901 5901 5902 5903 5903 5903 5903
5878 5876 5877 5878 5879 5879 5879 5880 5881 5880 5880 5881 5880 5882 5883 5882 5883 5885 5885 5887 5888 5889 5890 5892 5892 5893 5895 5895 5895 5897 5898 5899 5900 5899 5899 5898 5898 5899 5900 5901 5901 5902 5903 5903 5904 5905 5905 5904 5904
5878 5879 5881 5880 5881 5880 5880 5880 5878 5880 5882 5883 5883 5883 5884 5884 5886 5886 5887 5889 5891 5891 5892 5893 5894 5895 5896 5897 5897 5899 5900 5900 5899 5898 5899 5899 5899 5900 5902 5903 5903 5904 5905 5905 5906 5905 5904 5905 5906
5880 5880 5883 5883 5884 5884 5883 5881 5881 5880 5882 5884 5884 5883 5885 5886 5887 5888 5889 5890 5892 5893 5893 5894 5895 5896 5897 5897 5899 5900 5900 5900 5899 5899 5900 5900 5901 5902 5904 5904 5905 5905 5906 5906 5906 5906 5905 5905 5905
5882 5883 5883 5885 5885 5885 5884 5883 5882 5881 5883 5884 5885 5884 5886 5888 5888 5889 5890 5891 5893 5894 5895 5895 5896 5897 5898 5899 5900 5900 5900 5900 5900 5901 5902 5902 5903 5905 5906 5906 5906 5906 5907 5906 5907 5907 5907 5906 5905
5884 5885 5885 5885 5884 5883 5884 5883 5882 5881 5882 5884 5885 5886 5888 5890 5890 5891 5892 5893 5895 5895 5896 5896 5897 5899 5899 5900 5901 5901 5901 5902 5902 5903 5904 5904 5906 5908 5908 5909 5908 5909 5908 5908 5908 5909 5908 5908 5907
5885 5885 5887 5886 5885 5885 5884 5883 5883 5883 5883 5885 5888 5887 5888 5889 5892 5893 5894 5895 5895 5896 5896 5897 5899 5900 5900 5901 5902 5902 5903 5903 5904 5906 5907 5908 5909 5910 5911 5911 5911 5910 5910 5910 5910 5910 5911 5910 5910
5886 5887 5886 5886 5885 5885 5884 5883 5884 5885 5885 5886 5888 5890 5889 5889 5893 5895 5896 5896 5896 5896 5898 5899 5900 5901 5901 5902 5903 5903 5905 5905 5907 5909 5910 5911 5912 5913 5914 5914 5914 5913 5913 5914 5914 5913 5913 5912 5912
5888 5887 5887 5886 5885 5884 5885 5884 5884 5884 5885 5887 5889 5889 5891 5892 5893 5895 5897 5897 5897 5898 5899 5900 5901 5902 5903 5904 5905 5905 5907 5908 5909 5911 5913 5913 5916 5916 5917 5916 5916 5916 5916 5916 5916 5915 5915 5914 5914
5885 5886 5887 5886 5885 5883 5882 5885 5885 5885 5885 5887 5888 5890 5892 5893 5894 5895 5897 5898 5898 5899 5900 5902 5903 5904 5905 5906 5907 5908 5909 5911 5912 5914 5916 5917 5918 5919 5919 5919 5919 5919 5918 5918 5918 5917 5916 5915 5915
5883 5885 5886 5887 5886 5886 5882 5883 5885 5885 5885 5886 5888 5890 5891 5893 5894 5896 5897 5898 5900 5900 5902 5903 5905 5906 5907 5908 5908 5910 5912 5913 5915 5916 5918 5919 5920 5921 5920 5920 5921 5920 5920 5921 5920 5920 5919 5917 5915
5881 5883 5887 5890 5889 5889 5888 5885 5883 5884 5885 5888 5889 5889 5889 5890 5893 5895 5896 5898 5900 5901 5903 5905 5906 5908 5909 5910 5910 5912 5913 5915 5917 5918 5919 5920 5921 5921 5921 5921 5922 5922 5922 5922 5921 5921 5920 5918 5917
5878 5879 5880 5887 5889 5889 5887 5887 5885 5883 5884 5887 5888 5889 5889 5889 5891 5893 5895 5898 5900 5902 5903 5906 5907 5909 5911 5912 5912 5914 5915 5916 5918 5920 5920 5921 5921 5922 5921 5922 5923 5923 5924 5924 5923 5922 5921 5919 5917
5877 5878 5880 5884 5888 5889 5888 5887 5886 5883 5884 5887 5888 5887 5887 5888 5890 5892 5894 5897 5899 5902 5904 5906 5908 5910 5912 5913 5914 5916 5917 5918 5919 5920 5921 5921 5922 5922 5922 5922 5923 5923 5923 5923 5923 5922 5920 5919 5919
5875 5878 5880 5883 5887 5888 5888 5888 5887 5884 5883 5886 5887 5888 5887 5887 5889 5892 5894 5895 5899 5902 5904 5907 5908 5910 5912 5914 5915 5917 5919 5920 5920 5921 5922 5923 5923 5923 5923 5923 5925 5924 5922 5922 5921 5921 5920 5919 5919
5871 5876 5879 5880 5884 5886 5886 5887 5887 5885 5883 5884 5887 5887 5887 5887 5890 5893 5895 5896 5899 5903 5904 5907 5909 5910 5912 5914 5915 5917 5919 5921 5921 5922 5923 5924 5924 5923 5923 5924 5925 5924 5922 5921 5920 5920 5920 5919 5919
5866 5873 5877 5879 5882 5883 5885 5885 5884 5884 5883 5884 5887 5886 5888 5888 5890 5892 5895 5897 5899 5902 5906 5908 5910 5911 5912 5914 5916 5917 5919 5921 5922 5922 5923 5923 5924 5923 5924 5925 5925 5924 5922 5921 5920 5919 5919 5918 5917
5865 5871 5873 5876 5878 5879 5882 5884 5882 5882 5882 5883 5886 5886 5889 5888 5890 5891 5895 5897 5899 5903 5905 5908 5910 5912 5913 5914 5916 5918 5920 5921 5922 5923 5924 5923 5923 5924 5924 5925 5925 5923 5922 5920 5920 5919 5919 5918 5917
5863 5866 5868 5872 5873 5875 5878 5882 5880 5877 5879 5882 5886 5886 5888 5889 5890 5891 5894 5897 5898 5902 5906 5909 5911 5912 5913 5914 5916 5917 5919 5921 5921 5923 5924 5924 5924 5924 5924 5925 5923 5921 5920 5920 5920 5919 5918 5917 5916
5858 5861 5865 5868 5869 5870 5871 5876 5877 5877 5878 5879 5883 5886 5887 5889 5888 5891 5894 5897 5900 5902 5905 5909 5912 5913 5914 5914 5915 5916 5917 5919 5921 5922 5922 5923 5925 5925 5925 5923 5922 5920 5920 5920 5919 5919 5917 5916 5915
5853 5858 5862 5865 5864 5865 5868 5870 5873 5876 5878 5877 5877 5884 5886 5887 5889 5891 5894 5896 5899 5902 5905 5908 5910 5911 5913 5914 5915 5916 5916 5917 5919 5921 5923 5924 5925 5925 5924 5922 5920 5920 5919 5919 5918 5917 5916 5915 5914
5847 5856 5856 5858 5858 5860 5863 5863 5867 5873 5875 5877 5876 5880 5885 5886 5888 5890 5894 5897 5897 5899 5902 5905 5907 5909 5912 5913 5914 5916 5917 5918 5920 5921 5923 5923 5923 5922 5922 5921 5919 5919 5918 5917 5917 5917 5915 5914 5912
5845 5847 5853 5854 5854 5855 5857 5858 5865 5867 5872 5874 5874 5878 5883 5885 5887 5890 5892 5894 5896 5897 5900 5902 5904 5907 5910 5912 5913 5914 5916 5917 5919 5920 5921 5921 5920 5920 5919 5919 5919 5919 5918 5917 5917 5916 5914 5912 5911
5838 5839 5842 5846 5847 5840 5851 5852 5858 5864 5871 5874 5871 5876 5880 5883 5887 5890 5892 5894 5896 5897 5898 5901 5903 5904 5907 5909 5911 5913 5913 5914 5915 5917 5918 5918 5918 5918 5917 5917 5917 5917 5916 5917 5916 5915 5913 5911 5909
5827 5831 5831 5833 5833 5832 5846 5846 5855 5860 5867 5872 5872 5874 5879 5881 5885 5888 5891 5894 5895 5898 5898 5899 5901 5903 5904 5906 5907 5909 5910 5911 5912 5913 5914 5915 5915 5915 5915 5915 5915 5915 5915 5916 5915 5914 5911 5910 5909
5824 5822 5822 5824 5828 5832 5836 5839 5848 5857 5862 5865 5869 5872 5874 5875 5879 5884 5887 5890 5892 5894 5896 5895 5896 5898 5899 5900 5902 5904 5906 5907 5908 5910 5910 5911 5911 5912 5912 5912 5913 5914 5914 5914 5913 5912 5910 5909 5909
5815 5816 5826 5822 5824 5827 5829 5835 5841 5849 5855 5861 5866 5868 5871 5873 5876 5880 5883 5885 5888 5890 5893 5892 5893 5895 5896 5896 5897 5899 5900 5903 5904 5905 5907 5907 5907 5908 5909 5910 5911 5912 5912 5911 5911 5910 5909 5908 5907
5805 5815 5813 5813 5814 5818 5822 5829 5836 5846 5853 5857 5860 5864 5868 5872 5874 5876 5878 5880 5884 5888 5891 5890 5891 5892 5892 5892 5893 5894 5895 5896 5898 5899 5902 5904 5904 5904 5905 5908 5908 5909 5909 5909 5908 5907 5907 5906 5905
5801 5803 5804 5805 5808 5815 5818 5824 5831 5839 5848 5852 5857 5861 5864 5868 5870 5873 5874 5877 5879 5882 5886 5887 5888 5889 5889 5889 5889 5891 5891 5892 5892 5894 5896 5898 5899 5900 5901 5904 5905 5906 5907 5906 5906 5905 5904 5904 5903
5789 5793 5793 5797 5809 5811 5814 5820 5826 5832 5839 5845 5853 5855 5859 5864 5868 5868 5870 5872 5874 5876 5880 5883 5884 5886 5886 5886 5886 5887 5887 5887 5888 5888 5890 5891 5893 5895 5897 5900 5902 5903 5904 5904 5903 5903 5902 5901 5900